Location: Altamira
(10.5079°N, 66.8544°W)
Time: 17:31:35
(UTC+00:00)

GPS 2-12 Rocket1 - Pass Details

Date: 13 December 2025
Orbit: 562 x 615 km, 20.0° (Epoch: 13 January)

Event Time Altitude Azimuth Distance (km) Brightness Sun altitude
Rises 23:42:40 0° 248° (WSW) 2,734 7.9 -22.6°
Reaches altitude 10° 23:44:57 10° 247° (WSW) 1,843 6.6 -23.1°
Enters shadow 23:49:04 76° 194° (SSW) 585 2.9 -24.0°
